Location: Bush Observatory
(40.2653°N, 94.3194°W)
Time: 04:44:00
(UTC-06:00)

Daily predictions for brighter satellites

Satellite Brightness Start Highest point End
(mag) Time Altitude Azimuth Time Altitude Azimuth Time Altitude Azimuth
CZ-3 R/B 4.3 02:42:12 10° W 03:39:31 50° SSW 03:49:58 10° SE
Cosmos 2333 Rocket 4.4 04:01:08 20° ESE 04:01:08 20° ESE 04:03:12 10° ESE
Cosmos 2219 Rocket 4.1 04:26:01 21° SE 04:26:01 21° SE 04:27:49 10° SSE
Cosmos 2237 Rocket 2.6 04:49:36 61° E 04:49:36 61° E 04:54:43 10° SSE
SL-16 R/B 3.8 04:48:45 21° NNE 04:51:22 30° ENE 04:56:19 10° ESE
BREEZE-M DEB (TANK) 4.1 04:55:26 57° SSE 04:55:26 57° SSE 04:58:07 10° SE
Cosmos 2297 Rocket 2.4 04:59:57 50° SSE 05:01:15 66° ESE 05:06:53 10° NNE
SL-08 R/B 4.3 04:55:18 10° S 05:01:28 86° E 05:07:36 10° N
Cosmos 2227 Rocket 2.2 05:14:08 65° NNW 05:14:08 65° NNW 05:19:06 10° NNE
Meteor 1-21 Rocket 4.0 05:15:05 63° NNW 05:16:03 85° W 05:21:38 10° S
Cosmos 371 Rocket 4.1 05:18:42 39° S 05:18:42 39° S 05:21:46 10° S
USA 229 DEB 4.0 05:16:20 31° NNW 05:20:01 69° NE 05:27:14 10° SE
USA 229 4.0 05:16:24 31° NNW 05:20:07 68° NE 05:27:19 10° SE
Cosmos 2016 Rocket 4.4 05:27:04 42° NW 05:27:04 42° NW 05:31:38 10° N
Aureole 2 Rocket 3.3 05:28:32 46° NNE 05:29:35 61° ENE 05:33:44 10° SSE
CZ-3 Stage 3 3.1 05:28:45 26° SSW 05:30:09 32° SSE 05:39:53 10° ESE
Cosmos 1743 Rocket 3.7 05:28:19 34° N 05:30:09 71° E 05:34:32 10° SSE
NOSS 0 Rocket 4.2 05:31:10 44° WSW 05:31:10 44° WSW 05:36:30 10° S
Cosmos 1461 3.6 05:32:41 41° S 05:32:41 41° S 05:35:29 10° SSE
Cosmos 2233 Rocket 4.1 05:26:34 10° S 05:32:45 77° E 05:39:03 10° N
Cosmos 1980 3.9 05:35:48 47° WSW 05:35:48 47° WSW 05:41:03 10° S
Meteor 1-4 Rocket 3.4 05:33:24 10° S 05:36:58 51° E 05:40:38 10° NNE
Cosmos 1674 4.1 05:39:02 27° SSW 05:39:02 27° SSW 05:40:53 10° S
Cosmos 1842 Rocket 3.8 05:34:25 10° S 05:38:41 68° E 05:43:02 10° NNE
COSMO-SKYMED 1 2.4 05:34:27 10° SSE 05:38:46 85° WSW 05:40:06 45° NNW
Cosmos 2082 3.8 05:40:05 47° W 05:40:53 50° WNW 05:46:29 10° NNE
Cosmos 540 Rocket 3.3 05:40:01 48° NW 05:41:14 65° WSW 05:46:17 10° S
Cosmos 2333 Rocket 3.0 05:43:13 32° SW 05:43:13 32° SW 05:47:21 10° SSW
OE (NEXTSAT) 4.4 05:46:12 72° S 05:46:12 72° S 05:49:38 10° ESE
Cosmos 2058 4.4 05:46:05 10° N 05:49:55 36° ENE 05:53:44 10° SE
Cosmos 1816 Rocket 4.4 05:44:06 10° NNW 05:50:22 66° W 05:56:33 10° S
Cosmos 1328 3.9 05:50:27 14° N 05:53:51 76° E 05:57:50 10° SSE
ISS -2.2 05:55:55 31° N 05:56:31 34° NNE 05:59:32 10° E
Tsikada Rocket 4.2 05:51:39 10° NNW 05:57:43 47° W 06:03:42 10° SSW
Cosmos 1500 Rocket 3.4 05:53:59 13° N 05:58:00 79° W 06:02:28 10° S
OAO 2 Rocket 3.9 05:58:27 26° WSW 06:00:48 46° S 06:05:31 10° ESE
Cosmos 2151 3.1 05:57:54 10° N 06:02:08 72° E 06:06:21 10° SSE
ERBS 4.2 06:03:12 17° N 06:04:52 24° NE 06:07:44 10° E
Cosmos 2219 Rocket 4.0 06:07:49 13° SW 06:07:49 13° SW 06:08:56 10° SW
Cosmos 2346 Rocket 4.3 06:00:12 10° NNW 06:06:19 69° W 06:12:19 10° S
USA 234 3.6 05:59:53 10° ESE 06:06:21 64° NE 06:11:49 15° NW
Cosmos 304 Rocket 3.7 06:05:19 16° NNW 06:09:06 72° WSW 06:13:50 10° S
Ariane Rocket 2.9 06:06:25 10° N 06:11:31 70° WNW 06:16:34 10° SSW
NOSS 3-1 (C) 4.3 06:08:29 10° NNW 06:16:04 70° NE 06:24:24 10° SE
Cosmos 220 Rocket 4.2 06:14:58 10° SW 06:19:16 50° WNW 06:23:34 10° N
Cosmos 1464 Rocket 4.1 06:13:54 10° S 06:20:15 82° E 06:26:35 10° N
Cosmos 2227 4.5 06:16:06 10° SSW 06:21:41 72° ESE 06:27:17 10° NNE
Genesis I 4.4 06:23:34 10° NNW 06:27:17 39° NE 06:30:58 10° ESE
CSL-04 Rocket 3.6 06:22:40 10° N 06:27:55 61° WNW 06:33:06 10° SSW
Cosmos 1703 3.9 06:24:50 10° N 06:28:43 59° E 06:32:36 10° SSE
SJ-12 4.0 06:26:59 10° NNE 06:31:06 82° ESE 06:35:09 10° S
Cosmos 2237 Rocket 3.6 06:31:30 16° W 06:32:30 17° W 06:36:00 10° SW
YAOGAN 1 3.2 06:30:29 10° NNE 06:34:47 59° ESE 06:39:02 10° S
SL-16 R/B 2.7 06:30:41 12° NW 06:35:31 38° WSW 06:40:43 10° S
Cosmos 1340 Rocket 2.7 06:31:39 10° NNW 06:35:33 66° W 06:39:27 10° S
Cosmos 1072 Rocket 4.4 06:32:57 10° SSW 06:39:06 66° W 06:45:13 10° N
PAYLOAD A 3.9 06:35:02 10° N 06:40:03 62° WNW 06:44:52 10° SSW
Meteor 1-11 4.4 06:36:25 10° NNW 06:42:05 54° W 06:47:42 10° S
Aureole 1 4.1 06:41:26 10° SSW 06:44:25 71° WNW 06:47:49 10° NNE
IRS-1A Rocket 4.3 06:38:54 10° N 06:44:46 69° WNW 06:50:33 10° SSW
Cosmos 2297 Rocket 3.5 06:41:55 10° W 06:45:48 20° NW 06:49:51 10° N
SL-8 R/B 4.5 06:42:28 12° NW 06:46:37 43° NNE 06:51:11 10° E
Meteor 2-12 Rocket 4.5 06:41:37 10° SSW 06:47:40 63° W 06:53:48 10° N
Cosmos 1666 Rocket 3.9 06:43:44 10° N 06:48:11 71° E 06:52:38 10° SSE
Cosmos 968 Rocket 4.1 06:43:36 10° SW 06:48:20 33° WNW 06:53:06 10° N
Cosmos 1271 Rocket 3.4 06:47:07 10° SW 06:50:37 33° WNW 06:54:05 10° N
SL-14 R/B 4.2 06:47:15 10° NNW 06:50:44 28° W 06:54:13 10° SSW
CZ-2C R/B 2.2 06:47:59 10° N 06:52:35 67° WNW 06:57:05 10° SSW
BREEZE-M DEB (TANK) 4.0 06:52:31 10° NW 06:54:32 16° N 06:56:04 10° NE
CZ-4 R/B 1.5 06:51:09 10° N 06:55:04 51° WNW 06:59:01 10° SSW
Cosmos 773 Rocket 4.1 06:50:49 10° NNW 06:56:01 61° WSW 07:01:14 10° S
Cosmos 1484 Rocket 3.5 06:53:49 10° NNE 06:57:49 62° E 07:01:46 10° S
Cosmos 2227 Rocket 3.9 06:56:13 10° WNW 06:58:30 12° NW 07:00:47 10° NNW
Cosmos 2221 3.0 06:55:55 10° SSW 06:59:58 38° WNW 07:04:02 10° N
TELKOM 3 3.2 06:57:39 10° WSW 07:00:08 45° NNW 07:02:13 10° NE
SPOT 3 Rocket 3.6 06:57:33 10° NNE 07:02:47 80° WNW 07:07:59 10° SSW
Coronas F rocket 1.5 07:00:28 10° N 07:02:51 61° E 07:05:13 10° SSE
AQUARIUS 4.2 06:59:02 10° N 07:03:28 57° WNW 07:07:51 10° SSW
Cosmos 292 Rocket 3.8 06:59:41 10° NNW 07:04:29 87° WSW 07:09:17 10° SSE
DELTA 2 R/B (1) 4.5 07:03:29 10° SW 07:08:49 50° SSE 07:14:12 10° E
GPS 2-05 Rocket1 4.3 07:06:20 10° WSW 07:09:21 33° S 07:12:28 10° ESE
